| time (UTC) | temp C | wind direction | speed KPH | gust KPH | rain 1hr cm | rain 24hr cm | rain mn cm | humidity % | barometer mb |
| 20260502190535 | 18 | 207 | 0.0 | 1.6 | 0.00 | 0.00 | 0.00 | 63 | 1015.9 |
| 20260502190035 | 18 | 207 | 0.0 | 3.2 | 0.00 | 0.00 | 0.00 | 61 | 1015.9 |
| 20260502185534 | 19 | 207 | 0.0 | 3.2 | 0.00 | 0.00 | 0.00 | 59 | 1016.0 |
| 20260502185034 | 19 | 207 | 1.6 | 3.2 | 0.00 | 0.00 | 0.00 | 58 | 1015.9 |
| 20260502184534 | 19 | 207 | 0.0 | 1.6 | 0.00 | 0.00 | 0.00 | 58 | 1015.8 |
| 20260502184035 | 19 | 207 | 0.0 | 1.6 | 0.00 | 0.00 | 0.00 | 58 | 1015.8 |
| 20260502183535 | 20 | 207 | 0.0 | 1.6 | 0.00 | 0.00 | 0.00 | 56 | 1015.8 |
| 20260502183043 | 20 | 207 | 0.0 | 1.6 | 0.00 | 0.00 | 0.00 | 55 | 1015.9 |
| 20260502182534 | 20 | 207 | 0.0 | 1.6 | 0.00 | 0.00 | 0.00 | 51 | 1015.8 |
| 20260502182033 | 21 | 207 | 0.0 | 0.0 | 0.00 | 0.00 | 0.00 | 53 | 1015.9 |
| 20260502181534 | 21 | 207 | 0.0 | 1.6 | 0.00 | 0.00 | 0.00 | 51 | 1015.8 |
| 20260502181034 | 21 | 207 | 0.0 | 1.6 | 0.00 | 0.00 | 0.00 | 51 | 1015.9 |
| 20260502180534 | 21 | 207 | 0.0 | 1.6 | 0.00 | 0.00 | 0.00 | 51 | 1015.9 |
| 20260502164026 | 25 | 205 | 3.2 | 8.0 | 0.00 | 0.00 | 0.00 | 33 | 1016.4 |
| 20260502163526 | 25 | 205 | 4.8 | 8.0 | 0.00 | 0.00 | 0.00 | 34 | 1016.5 |
| 20260502163025 | 25 | 204 | 4.8 | 9.7 | 0.00 | 0.00 | 0.00 | 34 | 1016.6 |
| 20260502162525 | 25 | 205 | 4.8 | 8.0 | 0.00 | 0.00 | 0.00 | 35 | 1016.6 |
| 20260502162023 | 26 | 206 | 3.2 | 8.0 | 0.00 | 0.00 | 0.00 | 36 | 1016.6 |
| 20260502161523 | 25 | 207 | 4.8 | 9.7 | 0.00 | 0.00 | 0.00 | 33 | 1016.7 |
| 20260502161024 | 26 | 202 | 4.8 | 9.7 | 0.00 | 0.00 | 0.00 | 36 | 1016.8 |
| 20260502160522 | 26 | 202 | 4.8 | 8.0 | 0.00 | 0.00 | 0.00 | 37 | 1016.8 |
| 20260502152020 | 26 | 213 | 6.4 | 11.3 | 0.00 | 0.00 | 0.00 | 34 | 1017.3 |
| 20260502151518 | 25 | 168 | 6.4 | 11.3 | 0.00 | 0.00 | 0.00 | 38 | 1017.6 |
| 20260502151018 | 25 | 170 | 6.4 | 11.3 | 0.00 | 0.00 | 0.00 | 35 | 1017.6 |
| 20260502150517 | 26 | 178 | 6.4 | 11.3 | 0.00 | 0.00 | 0.00 | 35 | 1017.6 |
| 20260502130504 | 26 | 168 | 6.4 | 14.5 | 0.00 | 0.00 | 0.00 | 34 | 1019.3 |
| 20260502123600 | 25 | 182 | 8.0 | 20.9 | 0.00 | 0.00 | 0.00 | 33 | 1019.8 |
| 20260502123100 | 25 | 197 | 8.0 | 20.9 | 0.00 | 0.00 | 0.00 | 34 | 1019.8 |
| 20260502122558 | 25 | 205 | 8.0 | 16.1 | 0.00 | 0.00 | 0.00 | 34 | 1019.9 |
| 20260502122058 | 25 | 173 | 9.7 | 14.5 | 0.00 | 0.00 | 0.00 | 33 | 1019.9 |
| 20260502121603 | 25 | 190 | 6.4 | 16.1 | 0.00 | 0.00 | 0.00 | 34 | 1020.0 |
| 20260502121057 | 25 | 192 | 11.3 | 16.1 | 0.00 | 0.00 | 0.00 | 32 | 1020.1 |
| 20260502120557 | 25 | 169 | 8.0 | 16.1 | 0.00 | 0.00 | 0.00 | 35 | 1020.1 |
| 20260502120114 | 25 | 234 | 6.4 | 16.1 | 0.00 | 0.00 | 0.00 | 34 | 1020.1 |
| 20260502115558 | 25 | 180 | 8.0 | 16.1 | 0.00 | 0.00 | 0.00 | 32 | 1020.3 |
| 20260502115054 | 25 | 173 | 6.4 | 16.1 | 0.00 | 0.00 | 0.00 | 35 | 1020.3 |
| 20260502114558 | 25 | 207 | 8.0 | 16.1 | 0.00 | 0.00 | 0.00 | 37 | 1020.4 |
| 20260502114054 | 25 | 181 | 8.0 | 16.1 | 0.00 | 0.00 | 0.00 | 36 | 1020.5 |
| 20260502113552 | 24 | 198 | 4.8 | 14.5 | 0.00 | 0.00 | 0.00 | 38 | 1020.6 |
| 20260502113110 | 24 | 214 | 6.4 | 17.7 | 0.00 | 0.00 | 0.00 | 37 | 1020.6 |
| 20260502112550 | 24 | 202 | 9.7 | 17.7 | 0.00 | 0.00 | 0.00 | 37 | 1020.8 |
| 20260502112053 | 24 | 234 | 6.4 | 17.7 | 0.00 | 0.00 | 0.00 | 36 | 1020.8 |
| 20260502111549 | 24 | 207 | 6.4 | 16.1 | 0.00 | 0.00 | 0.00 | 37 | 1020.9 |
| 20260502111047 | 24 | 220 | 8.0 | 16.1 | 0.00 | 0.00 | 0.00 | 39 | 1021.1 |
| 20260502110551 | 23 | 221 | 6.4 | 16.1 | 0.00 | 0.00 | 0.00 | 37 | 1021.1 |
| 20260502110049 | 23 | 209 | 6.4 | 14.5 | 0.00 | 0.00 | 0.00 | 37 | 1021.1 |
| 20260502105546 | 23 | 163 | 8.0 | 19.3 | 0.00 | 0.00 | 0.00 | 39 | 1021.2 |
| 20260502105046 | 23 | 246 | 9.7 | 17.7 | 0.00 | 0.00 | 0.00 | 37 | 1021.1 |
| 20260502104544 | 23 | 222 | 8.0 | 14.5 | 0.00 | 0.00 | 0.00 | 39 | 1021.2 |
| 20260502104044 | 23 | 194 | 4.8 | 16.1 | 0.00 | 0.00 | 0.00 | 38 | 1021.2 |
| 20260502103543 | 23 | 228 | 8.0 | 16.1 | 0.00 | 0.00 | 0.00 | 39 | 1021.4 |
| 20260502103106 | 23 | 192 | 8.0 | 16.1 | 0.00 | 0.00 | 0.00 | 38 | 1021.4 |
| 20260502102540 | 23 | 165 | 8.0 | 14.5 | 0.00 | 0.00 | 0.00 | 39 | 1021.5 |
| 20260502102041 | 22 | 175 | 8.0 | 17.7 | 0.00 | 0.00 | 0.00 | 39 | 1021.6 |
| 20260502101549 | 22 | 211 | 8.0 | 16.1 | 0.00 | 0.00 | 0.00 | 38 | 1021.8 |
| 20260502101038 | 22 | 190 | 6.4 | 16.1 | 0.00 | 0.00 | 0.00 | 38 | 1021.8 |
| 20260502100540 | 22 | 178 | 8.0 | 16.1 | 0.00 | 0.00 | 0.00 | 39 | 1021.9 |
| 20260502091531 | 21 | 182 | 8.0 | 16.1 | 0.00 | 0.00 | 0.00 | 42 | 1022.2 |
| 20260502091030 | 21 | 180 | 6.4 | 16.1 | 0.00 | 0.00 | 0.00 | 44 | 1022.2 |
| 20260502090529 | 21 | 187 | 6.4 | 16.1 | 0.00 | 0.00 | 0.00 | 43 | 1022.4 |
| 20260502071509 | 15 | 192 | 0.0 | 6.4 | 0.00 | 0.00 | 0.00 | 60 | 1023.1 |
| 20260502071006 | 15 | 191 | 1.6 | 6.4 | 0.00 | 0.00 | 0.00 | 61 | 1023.2 |
| 20260502070510 | 15 | 178 | 1.6 | 4.8 | 0.00 | 0.00 | 0.00 | 61 | 1023.2 |
| 20260502070012 | 15 | 178 | 1.6 | 4.8 | 0.00 | 0.00 | 0.00 | 64 | 1023.2 |
| 20260502065505 | 15 | 178 | 0.0 | 4.8 | 0.00 | 0.00 | 0.00 | 63 | 1023.1 |
| 20260502065007 | 15 | 177 | 0.0 | 3.2 | 0.00 | 0.00 | 0.00 | 65 | 1023.2 |
| 20260502064502 | 14 | 177 | 0.0 | 3.2 | 0.00 | 0.00 | 0.00 | 67 | 1023.1 |
| 20260502064001 | 13 | 177 | 1.6 | 3.2 | 0.00 | 0.00 | 0.00 | 69 | 1023.2 |
| 20260502063600 | 13 | 176 | 0.0 | 3.2 | 0.00 | 0.00 | 0.00 | 70 | 1023.3 |
| 20260502063124 | 12 | 176 | 0.0 | 3.2 | 0.00 | 0.00 | 0.00 | 73 | 1023.2 |
| 20260502062558 | 12 | 176 | 0.0 | 3.2 | 0.00 | 0.00 | 0.00 | 72 | 1023.2 |
| 20260502062055 | 12 | 176 | 0.0 | 3.2 | 0.00 | 0.00 | 0.00 | 73 | 1023.3 |
| 20260502061555 | 11 | 176 | 0.0 | 1.6 | 0.00 | 0.00 | 0.00 | 74 | 1023.3 |
| 20260502061053 | 11 | 176 | 0.0 | 3.2 | 0.00 | 0.00 | 0.00 | 75 | 1023.4 |
| 20260502060553 | 11 | 176 | 0.0 | 3.2 | 0.00 | 0.00 | 0.00 | 78 | 1023.5 |
| 20260502060100 | 10 | 176 | 0.0 | 1.6 | 0.00 | 0.00 | 0.00 | 78 | 1023.5 |
| 20260502055552 | 10 | 176 | 0.0 | 1.6 | 0.00 | 0.00 | 0.00 | 79 | 1023.6 |
| 20260502055055 | 10 | 176 | 0.0 | 1.6 | 0.00 | 0.00 | 0.00 | 79 | 1023.5 |
| 20260502054607 | 9 | 176 | 0.0 | 1.6 | 0.00 | 0.00 | 0.00 | 80 | 1023.6 |
| 20260502054052 | 9 | 176 | 0.0 | 1.6 | 0.00 | 0.00 | 0.00 | 81 | 1023.5 |
| 20260502053551 | 9 | 176 | 0.0 | 3.2 | 0.00 | 0.00 | 0.00 | 80 | 1023.4 |
| 20260502053051 | 8 | 176 | 1.6 | 3.2 | 0.00 | 0.00 | 0.00 | 81 | 1023.4 |
| 20260502052551 | 8 | 176 | 0.0 | 3.2 | 0.00 | 0.00 | 0.00 | 81 | 1023.4 |
| 20260502052051 | 8 | 176 | 0.0 | 1.6 | 0.00 | 0.00 | 0.00 | 82 | 1023.4 |
| 20260502051551 | 7 | 176 | 0.0 | 0.0 | 0.00 | 0.00 | 0.00 | 83 | 1023.2 |
| 20260502051050 | 7 | 176 | 0.0 | 0.0 | 0.00 | 0.00 | 0.00 | 84 | 1023.3 |
| 20260502050550 | 7 | 176 | 0.0 | 1.6 | 0.00 | 0.00 | 0.00 | 86 | 1023.1 |
| 20260502050052 | 6 | 176 | 0.0 | 1.6 | 0.00 | 0.00 | 0.00 | 86 | 1023.1 |
| 20260502045552 | 6 | 176 | 0.0 | 1.6 | 0.00 | 0.00 | 0.00 | 87 | 1023.0 |
| 20260502045050 | 6 | 176 | 0.0 | 0.0 | 0.00 | 0.00 | 0.00 | 87 | 1023.1 |
| 20260502044551 | 5 | 176 | 0.0 | 1.6 | 0.00 | 0.00 | 0.00 | 87 | 1023.0 |
| 20260502044049 | 5 | 176 | 0.0 | 1.6 | 0.00 | 0.00 | 0.00 | 87 | 1023.0 |
| 20260502043549 | 5 | 176 | 0.0 | 0.0 | 0.00 | 0.00 | 0.00 | 88 | 1023.0 |
| 20260502043057 | 5 | 176 | 0.0 | 0.0 | 0.00 | 0.00 | 0.00 | 87 | 1023.0 |
| 20260502042549 | 5 | 176 | 0.0 | 1.6 | 0.00 | 0.00 | 0.00 | 87 | 1023.0 |
| 20260502042048 | 5 | 176 | 0.0 | 3.2 | 0.00 | 0.00 | 0.00 | 87 | 1022.9 |
| 20260502041549 | 5 | 176 | 1.6 | 3.2 | 0.00 | 0.00 | 0.00 | 87 | 1023.0 |
| 20260502041048 | 5 | 176 | 0.0 | 1.6 | 0.00 | 0.00 | 0.00 | 88 | 1023.0 |
| 20260502040547 | 5 | 176 | 0.0 | 0.0 | 0.00 | 0.00 | 0.00 | 88 | 1023.0 |
| 20260502040051 | 5 | 176 | 0.0 | 0.0 | 0.00 | 0.00 | 0.00 | 88 | 1022.9 |
| 20260502035547 | 5 | 176 | 0.0 | 1.6 | 0.00 | 0.00 | 0.00 | 88 | 1023.0 |
| 20260502035047 | 5 | 176 | 0.0 | 1.6 | 0.00 | 0.00 | 0.00 | 88 | 1023.1 |
| 20260502034550 | 5 | 176 | 0.0 | 1.6 | 0.00 | 0.00 | 0.00 | 88 | 1023.0 |
| 20260502034046 | 5 | 176 | 0.0 | 1.6 | 0.00 | 0.00 | 0.00 | 87 | 1023.1 |
| 20260502033544 | 5 | 176 | 0.0 | 1.6 | 0.00 | 0.00 | 0.00 | 87 | 1023.1 |
| 20260502033044 | 5 | 176 | 0.0 | 3.2 | 0.00 | 0.00 | 0.00 | 88 | 1023.1 |
| 20260502032544 | 5 | 176 | 0.0 | 3.2 | 0.00 | 0.00 | 0.00 | 88 | 1023.1 |
| 20260502032043 | 5 | 176 | 0.0 | 3.2 | 0.00 | 0.00 | 0.00 | 88 | 1023.1 |
| 20260502031543 | 5 | 176 | 0.0 | 1.6 | 0.00 | 0.00 | 0.00 | 88 | 1023.2 |
| 20260502031043 | 5 | 176 | 0.0 | 1.6 | 0.00 | 0.00 | 0.00 | 88 | 1023.1 |
| 20260502030542 | 5 | 176 | 0.0 | 1.6 | 0.00 | 0.00 | 0.00 | 88 | 1023.2 |
| 20260502030047 | 5 | 176 | 0.0 | 1.6 | 0.00 | 0.00 | 0.00 | 87 | 1023.2 |
| 20260502025542 | 5 | 176 | 0.0 | 3.2 | 0.00 | 0.00 | 0.00 | 88 | 1023.3 |
| 20260502025041 | 5 | 176 | 0.0 | 3.2 | 0.00 | 0.00 | 0.00 | 88 | 1023.3 |
| 20260502024543 | 5 | 176 | 0.0 | 1.6 | 0.00 | 0.00 | 0.00 | 88 | 1023.3 |
| 20260502024040 | 5 | 176 | 0.0 | 1.6 | 0.00 | 0.00 | 0.00 | 87 | 1023.2 |
| 20260502023542 | 5 | 176 | 0.0 | 3.2 | 0.00 | 0.00 | 0.00 | 86 | 1023.3 |
| 20260502023039 | 5 | 176 | 0.0 | 3.2 | 0.00 | 0.00 | 0.00 | 86 | 1023.3 |
| 20260502022538 | 6 | 176 | 0.0 | 3.2 | 0.00 | 0.00 | 0.00 | 85 | 1023.4 |
| 20260502022037 | 6 | 176 | 0.0 | 3.2 | 0.00 | 0.00 | 0.00 | 84 | 1023.4 |
| 20260502021535 | 6 | 176 | 0.0 | 3.2 | 0.00 | 0.00 | 0.00 | 84 | 1023.3 |
| 20260502021038 | 6 | 176 | 0.0 | 3.2 | 0.00 | 0.00 | 0.00 | 84 | 1023.4 |
| 20260502020535 | 6 | 176 | 0.0 | 0.0 | 0.00 | 0.00 | 0.00 | 84 | 1023.3 |
| 20260502020034 | 6 | 176 | 0.0 | 3.2 | 0.00 | 0.00 | 0.00 | 84 | 1023.4 |
| 20260502015535 | 6 | 176 | 0.0 | 3.2 | 0.00 | 0.00 | 0.00 | 84 | 1023.4 |
| 20260502015034 | 6 | 176 | 1.6 | 3.2 | 0.00 | 0.00 | 0.00 | 84 | 1023.6 |
| 20260502014532 | 7 | 176 | 0.0 | 3.2 | 0.00 | 0.00 | 0.00 | 84 | 1023.6 |
| 20260502014035 | 7 | 176 | 1.6 | 3.2 | 0.00 | 0.00 | 0.00 | 85 | 1023.6 |
| 20260502013532 | 7 | 176 | 0.0 | 1.6 | 0.00 | 0.00 | 0.00 | 85 | 1023.6 |
| 20260502013031 | 6 | 176 | 0.0 | 3.2 | 0.00 | 0.00 | 0.00 | 84 | 1023.7 |
| 20260502012531 | 6 | 176 | 0.0 | 3.2 | 0.00 | 0.00 | 0.00 | 83 | 1023.6 |
| 20260502012030 | 7 | 176 | 1.6 | 3.2 | 0.00 | 0.00 | 0.00 | 84 | 1023.7 |
| 20260502011529 | 6 | 176 | 1.6 | 3.2 | 0.00 | 0.00 | 0.00 | 84 | 1023.7 |
| 20260502011028 | 6 | 176 | 0.0 | 0.0 | 0.00 | 0.00 | 0.00 | 82 | 1023.8 |
| 20260502010527 | 7 | 176 | 0.0 | 3.2 | 0.00 | 0.00 | 0.00 | 81 | 1023.8 |
| 20260502010026 | 7 | 176 | 0.0 | 3.2 | 0.00 | 0.00 | 0.00 | 81 | 1023.7 |
| 20260502005527 | 7 | 176 | 0.0 | 1.6 | 0.00 | 0.00 | 0.00 | 80 | 1023.9 |
| 20260502005024 | 7 | 176 | 0.0 | 3.2 | 0.00 | 0.00 | 0.00 | 80 | 1023.9 |
| 20260502004524 | 7 | 176 | 0.0 | 3.2 | 0.00 | 0.00 | 0.00 | 80 | 1024.0 |
| 20260502004025 | 8 | 176 | 0.0 | 3.2 | 0.00 | 0.00 | 0.00 | 81 | 1024.0 |
| 20260502003522 | 8 | 176 | 0.0 | 3.2 | 0.00 | 0.00 | 0.00 | 82 | 1024.1 |
| 20260502003025 | 7 | 176 | 0.0 | 3.2 | 0.00 | 0.00 | 0.00 | 82 | 1024.2 |
| 20260502002521 | 7 | 176 | 0.0 | 0.0 | 0.00 | 0.00 | 0.00 | 81 | 1024.2 |
| 20260502002023 | 7 | 176 | 0.0 | 3.2 | 0.00 | 0.00 | 0.00 | 81 | 1024.2 |
| 20260502001520 | 7 | 176 | 0.0 | 3.2 | 0.00 | 0.00 | 0.00 | 81 | 1024.2 |
| 20260502001020 | 7 | 176 | 0.0 | 3.2 | 0.00 | 0.00 | 0.00 | 80 | 1024.2 |
| 20260502000520 | 7 | 176 | 0.0 | 1.6 | 0.00 | 0.00 | 0.00 | 80 | 1024.2 |
| 20260502000019 | 7 | 176 | 0.0 | 1.6 | 0.00 | 0.00 | 0.00 | 79 | 1024.2 |
| 20260501235518 | 8 | 176 | 0.0 | 3.2 | 0.00 | 0.00 | 0.00 | 78 | 1024.2 |
| 20260501235018 | 8 | 176 | 1.6 | 3.2 | 0.00 | 0.00 | 0.00 | 78 | 1024.3 |
| 20260501234517 | 8 | 176 | 0.0 | 3.2 | 0.00 | 0.00 | 0.00 | 77 | 1024.2 |
| 20260501234015 | 8 | 176 | 1.6 | 3.2 | 0.00 | 0.00 | 0.00 | 77 | 1024.2 |
| 20260501233515 | 8 | 176 | 0.0 | 3.2 | 0.00 | 0.00 | 0.00 | 77 | 1024.3 |
| 20260501233015 | 8 | 176 | 1.6 | 3.2 | 0.00 | 0.00 | 0.00 | 77 | 1024.2 |
| 20260501232514 | 8 | 176 | 0.0 | 1.6 | 0.00 | 0.00 | 0.00 | 76 | 1024.3 |
| 20260501232011 | 9 | 176 | 0.0 | 1.6 | 0.00 | 0.00 | 0.00 | 74 | 1024.3 |
| 20260501231511 | 9 | 176 | 0.0 | 3.2 | 0.00 | 0.00 | 0.00 | 74 | 1024.2 |
| 20260501231011 | 10 | 176 | 0.0 | 3.2 | 0.00 | 0.00 | 0.00 | 74 | 1024.2 |
| 20260501230511 | 9 | 176 | 1.6 | 3.2 | 0.00 | 0.00 | 0.00 | 74 | 1024.2 |
| 20260501230009 | 9 | 176 | 0.0 | 3.2 | 0.00 | 0.00 | 0.00 | 73 | 1024.2 |
| 20260501225509 | 10 | 176 | 0.0 | 3.2 | 0.00 | 0.00 | 0.00 | 73 | 1024.2 |
| 20260501225008 | 10 | 176 | 0.0 | 3.2 | 0.00 | 0.00 | 0.00 | 72 | 1024.2 |
| 20260501224506 | 10 | 176 | 0.0 | 3.2 | 0.00 | 0.00 | 0.00 | 71 | 1024.4 |
| 20260501224005 | 10 | 176 | 0.0 | 3.2 | 0.00 | 0.00 | 0.00 | 71 | 1024.3 |
| 20260501223505 | 10 | 176 | 0.0 | 0.0 | 0.00 | 0.00 | 0.00 | 71 | 1024.3 |
| 20260501223016 | 10 | 176 | 0.0 | 0.0 | 0.00 | 0.00 | 0.00 | 71 | 1024.4 |
| 20260501222506 | 10 | 176 | 0.0 | 0.0 | 0.00 | 0.00 | 0.00 | 71 | 1024.3 |
| 20260501222004 | 10 | 176 | 0.0 | 0.0 | 0.00 | 0.00 | 0.00 | 70 | 1024.3 |
| 20260501221502 | 10 | 176 | 0.0 | 0.0 | 0.00 | 0.00 | 0.00 | 69 | 1024.4 |
| 20260501221002 | 11 | 176 | 0.0 | 0.0 | 0.00 | 0.00 | 0.00 | 69 | 1024.3 |
| 20260501220502 | 11 | 176 | 0.0 | 0.0 | 0.00 | 0.00 | 0.00 | 69 | 1024.3 |
| 20260501215601 | 11 | 176 | 0.0 | 0.0 | 0.00 | 0.00 | 0.00 | 69 | 1024.3 |
| 20260501215100 | 11 | 176 | 0.0 | 0.0 | 0.00 | 0.00 | 0.00 | 68 | 1024.2 |
| 20260501214600 | 11 | 176 | 0.0 | 0.0 | 0.00 | 0.00 | 0.00 | 68 | 1024.2 |
| 20260501214100 | 11 | 176 | 0.0 | 0.0 | 0.00 | 0.00 | 0.00 | 69 | 1024.2 |
| 20260501213600 | 11 | 176 | 0.0 | 0.0 | 0.00 | 0.00 | 0.00 | 71 | 1024.2 |
| 20260501213109 | 11 | 176 | 0.0 | 0.0 | 0.00 | 0.00 | 0.00 | 69 | 1024.3 |
| 20260501212600 | 11 | 176 | 0.0 | 0.0 | 0.00 | 0.00 | 0.00 | 68 | 1024.2 |
| 20260501212059 | 11 | 176 | 0.0 | 0.0 | 0.00 | 0.00 | 0.00 | 69 | 1024.2 |
| 20260501211609 | 11 | 176 | 0.0 | 0.0 | 0.00 | 0.00 | 0.00 | 70 | 1024.2 |
| 20260501211058 | 11 | 176 | 0.0 | 0.0 | 0.00 | 0.00 | 0.00 | 68 | 1024.1 |
| 20260501210558 | 11 | 176 | 0.0 | 1.6 | 0.00 | 0.00 | 0.00 | 67 | 1024.2 |
| 20260501210058 | 12 | 176 | 0.0 | 1.6 | 0.00 | 0.00 | 0.00 | 67 | 1024.2 |
| 20260501205559 | 12 | 176 | 0.0 | 1.6 | 0.00 | 0.00 | 0.00 | 66 | 1024.3 |
| 20260501205059 | 12 | 176 | 0.0 | 1.6 | 0.00 | 0.00 | 0.00 | 66 | 1024.1 |
| 20260501204611 | 12 | 176 | 0.0 | 1.6 | 0.00 | 0.00 | 0.00 | 66 | 1024.2 |
| 20260501204059 | 12 | 176 | 0.0 | 3.2 | 0.00 | 0.00 | 0.00 | 65 | 1024.2 |
| 20260501203558 | 12 | 176 | 1.6 | 3.2 | 0.00 | 0.00 | 0.00 | 65 | 1024.2 |
| 20260501203108 | 12 | 176 | 0.0 | 3.2 | 0.00 | 0.00 | 0.00 | 64 | 1024.2 |
| 20260501202559 | 12 | 176 | 0.0 | 4.8 | 0.00 | 0.00 | 0.00 | 64 | 1024.3 |
| 20260501202057 | 12 | 175 | 0.0 | 3.2 | 0.00 | 0.00 | 0.00 | 64 | 1024.2 |
| 20260501201558 | 13 | 175 | 0.0 | 3.2 | 0.00 | 0.00 | 0.00 | 64 | 1024.2 |
| 20260501201100 | 13 | 175 | 0.0 | 3.2 | 0.00 | 0.00 | 0.00 | 61 | 1024.2 |
| 20260501200557 | 13 | 175 | 1.6 | 3.2 | 0.00 | 0.00 | 0.00 | 61 | 1024.3 |
| 20260501200057 | 14 | 175 | 0.0 | 3.2 | 0.00 | 0.00 | 0.00 | 60 | 1024.1 |
| 20260501195557 | 15 | 175 | 1.6 | 3.2 | 0.00 | 0.00 | 0.00 | 58 | 1024.1 |
| 20260501195058 | 15 | 175 | 0.0 | 0.0 | 0.00 | 0.00 | 0.00 | 55 | 1024.2 |
| 20260501194557 | 15 | 175 | 0.0 | 0.0 | 0.00 | 0.00 | 0.00 | 55 | 1024.2 |
| 20260501194057 | 15 | 175 | 0.0 | 0.0 | 0.00 | 0.00 | 0.00 | 55 | 1024.2 |
| 20260501193556 | 16 | 175 | 0.0 | 1.6 | 0.00 | 0.00 | 0.00 | 53 | 1024.1 |
| 20260501193056 | 16 | 175 | 0.0 | 1.6 | 0.00 | 0.00 | 0.00 | 51 | 1024.1 |
| 20260501192556 | 16 | 175 | 0.0 | 3.2 | 0.00 | 0.00 | 0.00 | 51 | 1024.1 |
| 20260501192056 | 16 | 175 | 0.0 | 3.2 | 0.00 | 0.00 | 0.00 | 50 | 1024.1 |
| 20260501191558 | 17 | 175 | 0.0 | 3.2 | 0.00 | 0.00 | 0.00 | 50 | 1024.0 |
| 20260501191056 | 17 | 175 | 0.0 | 3.2 | 0.00 | 0.00 | 0.00 | 50 | 1024.1 |